Regional Weather Roundup
Issued by NWS Upton, NY

Current Version | Previous Version | Text Only | Print | Product List | Glossary On
Versions: 1 2 3 4 5 6 7 8 9 10 11 12 13 14 15 16 17 18 19 20 21 22 23 24 25 26 27 28 29 30 31 32 33 34 35 36 37 38 39 40 41 42 43 44 45 46 47 48 49 50
447
ASUS41 KOKX 250509
RWROKX

REGIONAL WEATHER ROUNDUP
NATIONAL WEATHER SERVICE NEW YORK NY
100 AM EDT TUE JUL 25 2017

NOTE: "FAIR" INDICATES FEW OR NO CLOUDS BELOW 12,000 FEET WITH NO
SIGNIFICANT WEATHER AND/OR OBSTRUCTIONS TO VISIBILITY.

NYZ071-072-176-178-NJZ106-104-250600-
NEW YORK CITY METRO AREA

CITY           SKY/WX    TMP DP  RH WIND       PRES   REMARKS
Central Park   CLOUDY    64  58  80 VRB7      30.00R
Bronx Bot Gard   N/A     61  55  82 N3        29.99S
LaGuardia APRT CLOUDY    64  59  83 E9        29.96S
Kennedy INTL   CLOUDY    64  61  90 E6        29.97R
Breezy Point     N/A     63 N/A N/A NE5         N/A
Newark/Liberty CLOUDY    65  58  78 E6        29.97R
Teterboro      CLOUDY    64  57  78 NE5       29.96R
$$

NYZ177-179-078>081-250600-
LONG ISLAND NEW YORK

CITY           SKY/WX    TMP DP  RH WIND       PRES   REMARKS
Jones Beach      N/A     63 N/A N/A NE12        N/A
Matinecock PT    N/A     63 N/A N/A E17         N/A
Farmingdale    CLOUDY    63  57  81 E8        29.97R
MacArthur/ISP  CLOUDY    63  58  83 E6        29.97R
Shirley        CLOUDY    63  58  83 VRB3      29.97R
Mt Sinai Harb    N/A    N/A N/A N/A NE8G14      N/A
Westhampton    CLOUDY    62  57  83 NE7       29.98R
East Hampton   CLOUDY    60  56  86 NE7       29.96R
Montauk          N/A     62  58  86 NE9       29.98R
$$

NYZ052-065-067-250600-
HUDSON VALLEY

CITY           SKY/WX    TMP DP  RH WIND       PRES   REMARKS
White Plains   PTCLDY    60  55  83 NE3       29.97F
Larchmont Harb   N/A     63 N/A N/A N13         N/A
Croton O-T Hud   N/A     61 N/A N/A NE1         N/A
Newburgh       CLOUDY    61  57  88 E8        29.99R
Montgomery     CLOUDY    61  56  83 E5        29.98R
Poughkeepsie   CLOUDY    60  54  80 SE5       29.97R
Albany         CLOUDY    59  55  87 CALM      29.98R
$$

NJZ001-105-106-008-010-013-015-019>022-104-250600-
NEW JERSEY

CITY           SKY/WX    TMP DP  RH WIND       PRES   REMARKS
Newark/Liberty CLOUDY    65  58  78 E6        29.97R
Teterboro      CLOUDY    64  57  78 NE5       29.96R
Caldwell       CLOUDY    62  58  86 E7        29.99R
Somerville     CLOUDY    65  63  93 CALM      29.96R
Linden         CLOUDY    65  58  79 CALM      29.97R
Perth Amboy      N/A     64 N/A N/A E6          N/A
Sussex         CLOUDY    63  61  93 CALM      29.98R
Andover          N/A     63  60  90 CALM      29.98R
Trenton        CLOUDY    65  63  93 E5        29.96R
Millville      CLOUDY    68  68 100 E7        29.92S THUNDER
Atlantic City  LGT RAIN  69  68  96 SE5       29.92R
Wrightstown    CLOUDY    65  64  96 NE6       29.92F
Toms River     LGT RAIN  66  65  96 E5        29.94F
Belmar         NOT AVBL
$$

PAZ047>061-062-071-250600-
EASTERN PENNSYLVANIA

CITY           SKY/WX    TMP DP  RH WIND       PRES   REMARKS
Philadelphia   CLOUDY    70  67  90 NE8       29.94R
Allentown      CLOUDY    67  62  84 SE7       29.96R
Scranton       CLOUDY    69  64  84 NW6       29.94R
$$

CTZ002-004>006-009-010-012-RIZ004-006-007-MAZ004-011-015-250600-
SOUTHERN NEW ENGLAND
 IN CT

CITY           SKY/WX    TMP DP  RH WIND       PRES   REMARKS
Bradley INTL   CLOUDY    58  55  90 N9        29.99S
Hartford       CLOUDY    60  55  83 N10       29.99R
Danbury        CLOUDY    59  55  87 E8        30.00R
Wtrbury/Oxford CLOUDY    57  52  82 NE7       30.00R
Bridgeport     LGT RAIN  62  55  77 NE9       29.98R
Meriden        CLOUDY    60  55  83 N6        29.99R
New Haven      CLOUDY    61  55  81 N7        29.97R
Chester        CLOUDY    59  55  88 NE7G13    29.98R
Groton         CLOUDY    61  55  81 NE9       29.96S
Wilimantic     CLOUDY    61  56  83 NE8       29.99R

 IN RI

CITY           SKY/WX    TMP DP  RH WIND       PRES   REMARKS
Providence     CLOUDY    59  59 100 N10       29.97R FOG
Block Island   CLOUDY    61  57  87 NE14      29.96R
Westerly       CLOUDY    61  57  87 NE5       29.97R
 IN MA

CITY           SKY/WX    TMP DP  RH WIND       PRES   REMARKS
Boston         MOCLDY    58  57  97 N12       29.98R
Worcester      CLOUDY    52  51  97 N13G20    30.00S
Westfield      CLOUDY    57  55  93 N6        30.00S
Provincetown   LGT RAIN  58  57  97 NE14      29.94R
Nantucket      CLOUDY    63  61  93 NW12      29.90R
$$

ANZ330-335-338-340-345-350-353-355-250600-
COASTAL MARINE OBSERVATIONS


STATION/POSITION TIME  SKY/WX   TEMP    WIND        PRES    VSBY  WAVE
                                AIR SEA DIR/SP/G                  HT/PER
                 (UTC)          (F)     (DEG/KT/KT) (MB)    (MI)  (FT/S)
NY HARB ENTRANCE 0350            66 71   50/ 12/ 16 1013.5          4/ 7
20 S FIRE ISLAND 0450            67 73   70/ 10/ 14 1014.1          5/ 6
GREAT SOUTH BAY  0430            64 77   50/ 10/ 12   N/A
23 SSW MONTAUK P 0350            64 72              1013.6          5/ 6
15 E BARNEGAT LI 0430               71                N/A           5/ 7
HUDSON CANYON    0350            69 75   50/ 10/ 12 1012.8          5/ 7
KINGS POINT      0430            64 71   70/  2/  7 1014.6
EXECUTION ROCKS  0445            65      70/ 12/ 16   N/A
CENTRAL LI SOUND 0415            63      60/ 14/ 16   N/A           2
EASTERN LI SOUND NOT AVBL
ROBBINS REEF     0430                    70/ 10/ 13 1014.6
$$


>>>>>>>>>>>>>>>>>>>>>>>>>>>> KEY <<<<<<<<<<<<<<<<<<<<<<<<<<<
>                                                          <
>     SKY/WX - Sky Condition/Present Weather               <
>     TMP    - Temperature in Fahrenheit                   <
>     DP     - Dew Point in Fahrenheit                     <
>     RH     - Relative Humidity in Percent                <
>     WIND   - Direction (from) and Speed in MPH           <
>     PRES   - Mean Sea Level Pressure (inches of Hg)      <
>     WCI    - Wind Chill Index                            <
>     VSB    - VISIBILITY IN MILES                         <
>     HX     - HEAT INDEX                                  <
>     TC     - TEMPERATURE IN CELSIUS                      <
>     VRB    - VARIABLE WIND DIRECTION                     <
>                                                          <
>>>>>>>>>>>>>>>>>>>>>>>>>>>> KEY <<<<<<<<<<<<<<<<<<<<<<<<<<<




USA.gov is the U.S. government's official web portal to all federal, state and local government web resources and services.